| time (UTC) | temp C | wind direction | speed KPH | gust KPH | rain 1hr cm | rain 24hr cm | rain mn cm | humidity % | barometer mb |
| 20260505091525 | 7 | 217 | 8.0 | 20.9 | 0.00 | 1.65 | 0.00 | 81 | 1007.7 |
| 20260505090115 | 6 | 226 | 8.0 | 17.7 | 0.00 | 1.65 | 0.00 | 81 | 1007.5 |
| 20260505084510 | 7 | 282 | 9.7 | 24.1 | 0.00 | 1.68 | 0.00 | 80 | 1007.0 |
| 20260505083008 | 7 | 214 | 9.7 | 25.7 | 0.00 | 1.68 | 0.00 | 80 | 1006.5 |
| 20260505081510 | 7 | 240 | 9.7 | 24.1 | 0.00 | 1.68 | 0.00 | 81 | 1006.4 |
| 20260505080001 | 7 | 271 | 6.4 | 29.0 | 0.00 | 1.70 | 0.00 | 80 | 1006.3 |
| 20260505074602 | 7 | 182 | 8.0 | 32.2 | 0.00 | 1.70 | 0.00 | 80 | 1006.1 |
| 20260505073111 | 7 | 203 | 3.2 | 19.3 | 0.00 | 1.70 | 0.00 | 80 | 1006.0 |
| 20260505071600 | 7 | 284 | 4.8 | 24.1 | 0.00 | 1.70 | 0.00 | 80 | 1005.8 |
| 20260505070054 | 7 | 234 | 4.8 | 14.5 | 0.00 | 1.70 | 0.00 | 78 | 1005.6 |
| 20260505064550 | 7 | 254 | 9.7 | 25.7 | 0.00 | 1.75 | 0.00 | 78 | 1005.4 |
| 20260505063048 | 7 | 260 | 8.0 | 22.5 | 0.00 | 1.75 | 0.00 | 77 | 1004.9 |
| 20260505061552 | 7 | 216 | 8.0 | 24.1 | 0.00 | 1.75 | 0.00 | 77 | 1004.8 |
| 20260505060044 | 8 | 253 | 9.7 | 30.6 | 0.00 | 1.75 | 0.00 | 77 | 1004.6 |
| 20260505054559 | 8 | 217 | 3.2 | 16.1 | 0.00 | 1.80 | 0.00 | 77 | 1004.4 |
| 20260505053039 | 8 | 281 | 9.7 | 22.5 | 0.00 | 1.80 | 0.00 | 77 | 1004.3 |
| 20260505051535 | 8 | 246 | 14.5 | 29.0 | 0.00 | 1.80 | 0.00 | 77 | 1004.1 |
| 20260505041522 | 8 | 208 | 8.0 | 19.3 | 0.00 | 1.83 | 0.00 | 77 | 1003.7 |
| 20260505040020 | 8 | 240 | 11.3 | 33.8 | 0.00 | 1.83 | 0.00 | 77 | 1003.3 |
| 20260505034515 | 8 | 227 | 9.7 | 30.6 | 0.00 | 1.83 | 0.00 | 76 | 1003.2 |
| 20260505033013 | 9 | 250 | 9.7 | 24.1 | 0.00 | 1.83 | 0.00 | 75 | 1003.1 |
| 20260505031530 | 9 | 225 | 6.4 | 30.6 | 0.00 | 1.83 | 0.00 | 74 | 1002.7 |
| 20260505030009 | 9 | 202 | 8.0 | 29.0 | 0.00 | 2.01 | 1.83 | 74 | 1002.5 |
| 20260505024513 | 9 | 238 | 6.4 | 25.7 | 0.00 | 2.01 | 1.83 | 72 | 1002.3 |
| 20260505023009 | 9 | 229 | 11.3 | 29.0 | 0.00 | 2.01 | 1.83 | 70 | 1002.0 |
| 20260505021504 | 9 | 233 | 4.8 | 22.5 | 0.00 | 2.01 | 1.83 | 70 | 1002.1 |
| 20260505020002 | 9 | 226 | 8.0 | 29.0 | 0.00 | 2.77 | 1.83 | 69 | 1001.6 |
| 20260505014609 | 9 | 273 | 4.8 | 19.3 | 0.00 | 2.77 | 1.83 | 67 | 1001.4 |
| 20260505013109 | 9 | 202 | 9.7 | 20.9 | 0.00 | 2.77 | 1.83 | 67 | 1001.3 |
| 20260505011556 | 9 | 200 | 9.7 | 19.3 | 0.00 | 2.77 | 1.83 | 65 | 1001.0 |
| 20260505010055 | 9 | 217 | 8.0 | 27.4 | 0.00 | 2.77 | 1.83 | 66 | 1000.8 |
| 20260505004557 | 8 | 227 | 11.3 | 25.7 | 0.00 | 3.51 | 1.83 | 68 | 1000.7 |
| 20260505003053 | 8 | 220 | 8.0 | 25.7 | 0.00 | 3.51 | 1.83 | 64 | 1000.9 |
| 20260505001556 | 8 | 279 | 6.4 | 20.9 | 0.00 | 3.51 | 1.83 | 63 | 1000.7 |
| 20260505000106 | 8 | 209 | 4.8 | 14.5 | 0.00 | 3.51 | 1.83 | 61 | 1000.4 |
| 20260504234546 | 8 | 207 | 6.4 | 22.5 | 0.00 | 3.96 | 1.83 | 65 | 1000.0 |
| 20260504233046 | 8 | 286 | 9.7 | 24.1 | 0.00 | 3.96 | 1.83 | 64 | 999.8 |
| 20260504231545 | 9 | 233 | 12.9 | 30.6 | 0.00 | 3.96 | 1.83 | 62 | 999.4 |
| 20260504230100 | 9 | 211 | 9.7 | 29.0 | 0.00 | 3.96 | 1.83 | 62 | 999.4 |
| 20260504224540 | 10 | 216 | 14.5 | 35.4 | 0.00 | 4.78 | 1.83 | 62 | 999.1 |
| 20260504223040 | 10 | 259 | 17.7 | 43.5 | 0.00 | 4.78 | 1.83 | 61 | 998.8 |
| 20260504221550 | 10 | 238 | 14.5 | 46.7 | 0.00 | 4.78 | 1.83 | 62 | 998.8 |
| 20260504220037 | 10 | 279 | 12.9 | 43.5 | 0.00 | 4.78 | 1.83 | 62 | 998.6 |
| 20260504214537 | 10 | 267 | 19.3 | 45.1 | 0.00 | 4.95 | 1.83 | 62 | 998.5 |
| 20260504213042 | 10 | 213 | 19.3 | 51.5 | 0.00 | 4.95 | 1.83 | 61 | 998.4 |
| 20260504211533 | 10 | 195 | 17.7 | 43.5 | 0.00 | 4.95 | 1.83 | 62 | 998.4 |
| 20260504210033 | 10 | 287 | 22.5 | 43.5 | 0.00 | 4.95 | 1.83 | 63 | 998.1 |
| 20260504204537 | 10 | 225 | 12.9 | 41.8 | 0.00 | 5.23 | 1.83 | 64 | 998.2 |
| 20260504203031 | 10 | 244 | 22.5 | 66.0 | 0.00 | 5.23 | 1.83 | 65 | 997.9 |
| 20260504201529 | 10 | 265 | 20.9 | 41.8 | 0.00 | 5.23 | 1.83 | 64 | 997.4 |
| 20260504200025 | 10 | 202 | 16.1 | 56.3 | 0.00 | 5.23 | 1.83 | 69 | 997.2 |
| 20260504194524 | 10 | 263 | 19.3 | 59.5 | 0.00 | 5.28 | 1.83 | 71 | 996.8 |
| 20260504193019 | 8 | 205 | 24.1 | 45.1 | 0.00 | 5.28 | 1.83 | 73 | 996.5 |
| 20260504191516 | 8 | 213 | 24.1 | 56.3 | 0.00 | 5.28 | 1.83 | 74 | 996.0 |
| 20260504190015 | 8 | 292 | 14.5 | 45.1 | 0.00 | 5.28 | 1.83 | 76 | 995.7 |
| 20260504184514 | 8 | 274 | 14.5 | 38.6 | 0.00 | 5.28 | 1.83 | 77 | 995.5 |
| 20260504183008 | 8 | 236 | 14.5 | 49.9 | 0.00 | 5.28 | 1.83 | 80 | 995.1 |
| 20260504181506 | 7 | 252 | 11.3 | 56.3 | 0.00 | 5.28 | 1.83 | 82 | 995.1 |
| 20260504180003 | 7 | 229 | 17.7 | 56.3 | 0.00 | 5.28 | 1.83 | 84 | 994.9 |
| 20260504174600 | 6 | 242 | 17.7 | 48.3 | 0.00 | 5.28 | 1.83 | 85 | 994.6 |
| 20260504173056 | 6 | 224 | 20.9 | 46.7 | 0.03 | 5.28 | 1.83 | 87 | 993.6 |
| 20260504171552 | 6 | 113 | 20.9 | 45.1 | 0.08 | 5.28 | 1.83 | 89 | 992.8 |